Wetterstation Vordersexau
Wetterdaten: Jahr 2017
Datum Temp. A. Feuchte A. Luftdruck Regen Wind Richtung Taupunkt Windchill Windben
01.01.2017 -1,3 C 83 % 1020,3 hPa 0,5 l/m 0,0 km/h NW -3,9 C -1,3 C 0,0 km/h
02.01.2017 -0,4 C 83 % 1020,4 hPa 0,0 l/m 0,0 km/h W-NW -2,9 C -0,4 C 0,0 km/h
03.01.2017 -2,4 C 85 % 1025,0 hPa 0,0 l/m 0,0 km/h W-NW -4,6 C -2,4 C 0,0 km/h
04.01.2017 -0,6 C 86 % 1018,6 hPa 0,0 l/m 7,2 km/h SO -2,6 C -3,5 C 4,0 km/h
05.01.2017 -1,7 C 82 % 1024,3 hPa 2,1 l/m 0,0 km/h N -4,5 C -1,7 C 0,0 km/h
06.01.2017 -7,3 C 78 % 1034,5 hPa 0,0 l/m 0,0 km/h N -10,6 C -7,3 C 0,0 km/h
07.01.2017 -7,1 C 79 % 1031,5 hPa 0,0 l/m 0,0 km/h O-SO -10,2 C -7,1 C 0,0 km/h
08.01.2017 -1,4 C 85 % 1028,3 hPa 0,5 l/m 0,0 km/h O-NO -3,5 C -1,4 C 0,0 km/h
09.01.2017 -0,2 C 85 % 1024,2 hPa 0,0 l/m 0,0 km/h O-NO -2,4 C -0,2 C 0,0 km/h
10.01.2017 0,2 C 86 % 1009,6 hPa 0,0 l/m 0,0 km/h O-SO -1,9 C 0,2 C 0,0 km/h
11.01.2017 2,7 C 83 % 1012,1 hPa 1,6 l/m 11,2 km/h O-SO 0,1 C -1,7 C 6,2 km/h
12.01.2017 5,9 C 83 % 1009,2 hPa 2,1 l/m 10,6 km/h SW 3,3 C 2,2 C 5,9 km/h
13.01.2017 2,7 C 80 % 1003,0 hPa 0,5 l/m 12,3 km/h W-SW -0,4 C -2,1 C 6,8 km/h
14.01.2017 0,7 C 86 % 1011,9 hPa 3,6 l/m 0,5 km/h W -1,4 C 0,7 C 0,3 km/h
15.01.2017 -0,9 C 86 % 1018,4 hPa 0,5 l/m 0,0 km/h W -3,0 C -0,9 C 0,0 km/h
16.01.2017 -1,7 C 80 % 1020,8 hPa 1,6 l/m 1,2 km/h W -4,7 C -2,3 C 0,7 km/h
17.01.2017 -3,1 C 75 % 1026,5 hPa 0,5 l/m 0,7 km/h N-NO -7,1 C -3,2 C 0,4 km/h
18.01.2017 -2,5 C 67 % 1028,0 hPa 0,5 l/m 0,5 km/h N-NO -8,1 C -2,5 C 0,3 km/h
19.01.2017 -6,8 C 76 % 1029,0 hPa 0,0 l/m 0,0 km/h SO -10,5 C -6,8 C 0,0 km/h
20.01.2017 -6,6 C 77 % 1028,3 hPa 0,0 l/m 0,0 km/h W-NW -10,2 C -6,6 C 0,0 km/h
21.01.2017 -5,7 C 76 % 1025,8 hPa 0,0 l/m 0,0 km/h W-NW -9,6 C -5,7 C 0,0 km/h
22.01.2017 -7,6 C 85 % 1022,7 hPa 0,0 l/m 0,1 km/h W-NW -9,6 C -7,6 C 0,1 km/h
23.01.2017 -6,8 C 87 % 1022,4 hPa 0,0 l/m 0,7 km/h O-SO -8,7 C -6,9 C 0,4 km/h
24.01.2017 -5,6 C 84 % 1024,0 hPa 0,0 l/m 1,5 km/h O-SO -7,9 C -6,2 C 0,8 km/h
25.01.2017 -7,0 C 82 % 1024,5 hPa 0,0 l/m 0,0 km/h O-SO -9,6 C -7,0 C 0,0 km/h
26.01.2017 -6,5 C 76 % 1021,4 hPa 0,0 l/m 0,0 km/h O-SO -10,3 C -6,5 C 0,0 km/h
27.01.2017 -4,6 C 78 % 1017,5 hPa 0,0 l/m 0,0 km/h N-NW -8,0 C -4,6 C 0,0 km/h
28.01.2017 -0,6 C 77 % 1016,9 hPa 0,0 l/m 0,0 km/h N-NW -4,5 C -0,6 C 0,0 km/h
29.01.2017 1,5 C 83 % 1019,4 hPa 0,0 l/m 0,2 km/h O-SO -1,2 C 1,5 C 0,1 km/h
30.01.2017 4,2 C 85 % 1014,2 hPa 3,1 l/m 6,5 km/h O-SO 1,9 C 2,4 C 3,6 km/h
31.01.2017 6,7 C 81 % 1012,6 hPa 8,3 l/m 5,3 km/h W 3,7 C 5,0 C 3,0 km/h
01.02.2017 3,8 C 80 % 1013,8 hPa 0,5 l/m 0,0 km/h W 0,7 C 3,8 C 0,0 km/h
02.02.2017 8,1 C 78 % 1008,3 hPa 0,5 l/m 0,0 km/h W 4,5 C 8,1 C 0,0 km/h
03.02.2017 9,2 C 75 % 1005,3 hPa 0,5 l/m 6,1 km/h O-SO 4,7 C 7,8 C 3,4 km/h
04.02.2017 6,1 C 78 % 1001,2 hPa 1,0 l/m 11,4 km/h S-SW 2,4 C 2,3 C 6,4 km/h
05.02.2017 3,4 C 84 % 1001,3 hPa 10,4 l/m 0,9 km/h W-NW 0,9 C 3,0 C 0,5 km/h
06.02.2017 4,4 C 82 % 1012,1 hPa 2,6 l/m 0,0 km/h NW 1,7 C 4,4 C 0,0 km/h
07.02.2017 4,4 C 83 % 1014,4 hPa 1,0 l/m 0,2 km/h W 1,7 C 4,4 C 0,1 km/h
08.02.2017 4,3 C 85 % 1016,8 hPa 0,5 l/m 0,1 km/h W-SW 2,0 C 4,3 C 0,0 km/h
09.02.2017 1,9 C 77 % 1019,1 hPa 0,0 l/m 1,5 km/h W-SW -1,9 C 1,5 C 0,9 km/h
10.02.2017 1,2 C 83 % 1016,3 hPa 0,0 l/m 0,0 km/h W-NW -1,3 C 1,2 C 0,0 km/h
11.02.2017 3,2 C 82 % 1015,7 hPa 0,5 l/m 0,0 km/h W-NW 0,4 C 3,2 C 0,0 km/h
12.02.2017 3,5 C 84 % 1019,7 hPa 0,0 l/m 0,5 km/h W 1,0 C 3,3 C 0,3 km/h
13.02.2017 1,9 C 81 % 1022,1 hPa 0,0 l/m 0,0 km/h W -1,1 C 1,9 C 0,0 km/h
14.02.2017 3,0 C 76 % 1025,7 hPa 0,5 l/m 0,2 km/h NW -1,1 C 3,0 C 0,1 km/h
15.02.2017 6,1 C 73 % 1031,1 hPa 0,0 l/m 0,1 km/h NW 1,1 C 6,1 C 0,1 km/h
16.02.2017 8,9 C 72 % 1028,3 hPa 0,0 l/m 0,7 km/h W 3,4 C 8,6 C 0,4 km/h
17.02.2017 6,5 C 83 % 1024,8 hPa 6,7 l/m 0,5 km/h SO 3,8 C 6,5 C 0,3 km/h
18.02.2017 6,2 C 77 % 1023,5 hPa 1,6 l/m 0,0 km/h O-SO 2,4 C 6,2 C 0,0 km/h
19.02.2017 5,3 C 74 % 1021,8 hPa 0,5 l/m 1,8 km/h O-SO 0,6 C 4,9 C 1,0 km/h
20.02.2017 7,2 C 80 % 1021,0 hPa 0,5 l/m 7,8 km/h O-NO 4,0 C 4,8 C 4,3 km/h
21.02.2017 10,1 C 83 % 1017,4 hPa 0,5 l/m 17,7 km/h W-SW 7,4 C 4,7 C 9,8 km/h
22.02.2017 10,1 C 77 % 1014,8 hPa 0,0 l/m 22,9 km/h SW 6,4 C 2,9 C 12,7 km/h
23.02.2017 12,2 C 63 % 1005,8 hPa 0,0 l/m 17,8 km/h W-SW 4,7 C 7,9 C 9,9 km/h
24.02.2017 5,2 C 79 % 1011,6 hPa 6,2 l/m 3,7 km/h O-SO 1,7 C 4,2 C 2,1 km/h
25.02.2017 4,5 C 75 % 1019,1 hPa 0,5 l/m 0,2 km/h O-SO 0,2 C 4,5 C 0,1 km/h
26.02.2017 6,6 C 69 % 1014,7 hPa 0,0 l/m 5,3 km/h O-SO 0,7 C 5,2 C 3,0 km/h
27.02.2017 9,6 C 65 % 1004,7 hPa 0,5 l/m 8,3 km/h O-SO 2,9 C 7,8 C 4,6 km/h
28.02.2017 6,0 C 80 % 997,2 hPa 16,6 l/m 14,6 km/h S-SW 2,8 C 0,9 C 8,1 km/h
01.03.2017 7,1 C 77 % 1005,6 hPa 0,0 l/m 22,7 km/h S-SW 3,2 C -0,5 C 12,6 km/h
02.03.2017 9,2 C 69 % 1012,4 hPa 3,1 l/m 15,3 km/h W 3,3 C 4,6 C 8,5 km/h
03.03.2017 6,8 C 71 % 1007,3 hPa 0,0 l/m 0,9 km/h O-NO 1,6 C 6,4 C 0,5 km/h
04.03.2017 6,3 C 78 % 994,8 hPa 1,0 l/m 7,6 km/h O-NO 2,7 C 3,8 C 4,3 km/h
05.03.2017 7,8 C 74 % 1002,5 hPa 1,6 l/m 16,1 km/h W-SW 3,3 C 2,5 C 8,9 km/h
06.03.2017 6,2 C 81 % 1002,8 hPa 6,7 l/m 8,5 km/h S-SW 3,2 C 3,4 C 4,7 km/h
07.03.2017 4,8 C 84 % 1014,3 hPa 2,6 l/m 2,9 km/h O-SO 2,4 C 4,0 C 1,6 km/h
08.03.2017 6,3 C 79 % 1019,5 hPa 1,0 l/m 8,9 km/h O-SO 2,8 C 3,7 C 4,9 km/h
09.03.2017 10,1 C 83 % 1019,6 hPa 7,8 l/m 12,0 km/h SW 7,3 C 6,8 C 6,7 km/h
10.03.2017 10,2 C 66 % 1023,5 hPa 0,5 l/m 0,5 km/h O-SO 3,4 C 10,2 C 0,3 km/h
11.03.2017 8,4 C 68 % 1018,0 hPa 0,0 l/m 0,0 km/h W 2,0 C 8,4 C 0,0 km/h
12.03.2017 9,3 C 68 % 1011,8 hPa 0,0 l/m 0,3 km/h W-NW 3,1 C 9,3 C 0,2 km/h
13.03.2017 8,8 C 64 % 1020,7 hPa 0,0 l/m 0,3 km/h O-NO 1,7 C 8,8 C 0,2 km/h
14.03.2017 9,9 C 63 % 1029,0 hPa 0,0 l/m 0,2 km/h O 2,0 C 9,9 C 0,1 km/h
15.03.2017 10,5 C 69 % 1027,9 hPa 0,0 l/m 1,2 km/h O-SO 4,6 C 10,5 C 0,7 km/h
16.03.2017 9,5 C 71 % 1022,4 hPa 0,0 l/m 0,2 km/h NO 3,8 C 9,5 C 0,1 km/h
17.03.2017 12,1 C 68 % 1014,8 hPa 0,0 l/m 7,7 km/h O-SO 5,8 C 11,0 C 4,3 km/h
18.03.2017 9,1 C 80 % 1013,1 hPa 0,5 l/m 24,8 km/h SW 5,8 C 1,1 C 13,8 km/h
19.03.2017 12,1 C 79 % 1012,9 hPa 0,0 l/m 15,2 km/h SW 8,5 C 7,8 C 8,5 km/h
20.03.2017 12,7 C 72 % 1011,0 hPa 0,0 l/m 7,3 km/h SW 7,5 C 11,1 C 4,1 km/h
21.03.2017 10,5 C 71 % 1009,8 hPa 5,7 l/m 8,7 km/h W-SW 5,4 C 8,2 C 4,9 km/h
22.03.2017 6,8 C 81 % 1010,6 hPa 4,7 l/m 0,2 km/h N 3,7 C 6,8 C 0,1 km/h
23.03.2017 12,7 C 68 % 1009,8 hPa 0,0 l/m 0,5 km/h NO 6,6 C 12,7 C 0,3 km/h
24.03.2017 10,2 C 76 % 1018,8 hPa 0,0 l/m 0,9 km/h O-SO 6,0 C 10,1 C 0,5 km/h
25.03.2017 12,4 C 61 % 1017,7 hPa 0,0 l/m 0,1 km/h O-SO 3,9 C 12,4 C 0,1 km/h
26.03.2017 10,8 C 62 % 1017,7 hPa 0,0 l/m 0,9 km/h O-SO 3,1 C 10,8 C 0,5 km/h
27.03.2017 12,5 C 56 % 1018,8 hPa 0,0 l/m 1,2 km/h W 3,1 C 12,4 C 0,6 km/h
28.03.2017 13,6 C 62 % 1020,7 hPa 0,0 l/m 4,8 km/h O-SO 5,5 C 12,7 C 2,7 km/h
29.03.2017 15,4 C 61 % 1024,2 hPa 0,0 l/m 0,2 km/h O-SO 6,8 C 15,4 C 0,1 km/h
30.03.2017 15,5 C 62 % 1022,6 hPa 0,0 l/m 0,2 km/h O-SO 7,3 C 15,5 C 0,1 km/h
31.03.2017 15,2 C 60 % 1015,6 hPa 0,0 l/m 1,9 km/h O-SO 6,4 C 15,0 C 1,0 km/h
01.04.2017 13,2 C 60 % 1010,4 hPa 0,0 l/m 1,3 km/h O-SO 5,0 C 13,2 C 0,7 km/h
02.04.2017 12,7 C 71 % 1015,2 hPa 0,0 l/m 1,7 km/h W 7,3 C 12,6 C 1,0 km/h
03.04.2017 13,6 C 72 % 1019,8 hPa 0,0 l/m 0,5 km/h N-NO 8,4 C 13,6 C 0,3 km/h
04.04.2017 11,6 C 70 % 1019,3 hPa 0,0 l/m 0,6 km/h O-SO 5,8 C 11,5 C 0,4 km/h
05.04.2017 12,2 C 65 % 1019,6 hPa 0,0 l/m 2,6 km/h O-SO 5,1 C 11,7 C 1,5 km/h
06.04.2017 10,9 C 59 % 1022,1 hPa 0,0 l/m 4,0 km/h N 2,6 C 10,2 C 2,2 km/h
07.04.2017 6,7 C 72 % 1021,8 hPa 32,1 l/m 0,0 km/h O-SO 1,9 C 6,7 C 0,0 km/h
08.04.2017 13,3 C 62 % 1020,4 hPa 0,0 l/m 0,5 km/h W 4,9 C 13,2 C 0,3 km/h
09.04.2017 16,1 C 59 % 1020,2 hPa 0,0 l/m 0,8 km/h W-NW 6,5 C 16,1 C 0,4 km/h
10.04.2017 17,3 C 56 % 1017,4 hPa 0,0 l/m 5,3 km/h O-SO 7,2 C 16,7 C 2,9 km/h
11.04.2017 12,9 C 56 % 1021,2 hPa 0,0 l/m 2,0 km/h N 3,4 C 12,7 C 1,1 km/h
12.04.2017 12,7 C 55 % 1017,1 hPa 0,0 l/m 1,1 km/h N-NO 2,7 C 12,7 C 0,6 km/h
13.04.2017 13,7 C 59 % 1013,6 hPa 0,0 l/m 0,8 km/h N 5,1 C 13,6 C 0,4 km/h
14.04.2017 12,7 C 61 % 1014,4 hPa 0,0 l/m 0,4 km/h N 4,9 C 12,7 C 0,2 km/h
15.04.2017 10,7 C 75 % 1015,2 hPa 0,0 l/m 0,2 km/h SO 6,3 C 10,7 C 0,1 km/h
16.04.2017 8,4 C 82 % 1014,0 hPa 5,2 l/m 0,1 km/h O-SO 5,5 C 8,4 C 0,1 km/h
17.04.2017 6,9 C 83 % 1006,1 hPa 6,2 l/m 2,6 km/h O 4,2 C 6,2 C 1,4 km/h
18.04.2017 4,8 C 74 % 1021,0 hPa 0,0 l/m 1,1 km/h N 0,3 C 4,5 C 0,6 km/h
19.04.2017 3,9 C 77 % 1026,9 hPa 1,6 l/m 1,5 km/h N-NO 0,1 C 3,4 C 0,8 km/h
20.04.2017 6,4 C 59 % 1030,6 hPa 0,5 l/m 1,9 km/h NO -2,3 C 6,2 C 1,0 km/h
21.04.2017 9,4 C 55 % 1027,8 hPa 0,0 l/m 0,3 km/h O-SO -0,7 C 9,4 C 0,2 km/h
22.04.2017 8,7 C 65 % 1022,3 hPa 0,0 l/m 0,0 km/h O-SO 2,3 C 8,7 C 0,0 km/h
23.04.2017 9,9 C 57 % 1020,8 hPa 0,0 l/m 1,7 km/h O-NO 0,6 C 9,7 C 0,9 km/h
24.04.2017 12,5 C 53 % 1013,0 hPa 0,0 l/m 0,4 km/h SO 1,8 C 12,5 C 0,2 km/h
25.04.2017 9,9 C 72 % 1006,0 hPa 10,4 l/m 1,7 km/h N 4,9 C 9,5 C 1,0 km/h
26.04.2017 6,5 C 78 % 1008,0 hPa 9,8 l/m 0,2 km/h N-NO 2,9 C 6,5 C 0,1 km/h
27.04.2017 5,3 C 83 % 1012,0 hPa 13,0 l/m 0,3 km/h W-NW 2,6 C 5,3 C 0,2 km/h
28.04.2017 7,9 C 70 % 1012,6 hPa 0,0 l/m 1,6 km/h N 2,3 C 7,4 C 0,9 km/h
29.04.2017 11,7 C 58 % 1014,2 hPa 0,0 l/m 0,2 km/h O-SO 2,5 C 11,7 C 0,1 km/h
30.04.2017 14,4 C 51 % 1007,0 hPa 0,0 l/m 1,4 km/h W 3,3 C 14,2 C 0,8 km/h
01.05.2017 9,0 C 76 % 1010,2 hPa 4,1 l/m 7,0 km/h SW 4,8 C 6,9 C 3,9 km/h
02.05.2017 12,6 C 66 % 1013,3 hPa 0,0 l/m 2,6 km/h W 5,9 C 12,1 C 1,5 km/h
03.05.2017 13,3 C 69 % 1014,5 hPa 1,0 l/m 0,1 km/h SO 7,2 C 13,3 C 0,1 km/h
04.05.2017 11,7 C 75 % 1013,1 hPa 4,7 l/m 0,8 km/h O-SO 7,2 C 11,5 C 0,4 km/h
05.05.2017 15,3 C 65 % 1014,2 hPa 0,0 l/m 0,3 km/h N 8,0 C 15,3 C 0,2 km/h
06.05.2017 11,1 C 79 % 1008,6 hPa 11,4 l/m 1,7 km/h SO 7,6 C 10,8 C 0,9 km/h
07.05.2017 12,0 C 80 % 1012,8 hPa 8,3 l/m 11,9 km/h SW 8,7 C 9,1 C 6,6 km/h
08.05.2017 9,9 C 79 % 1015,9 hPa 4,7 l/m 0,3 km/h W 6,4 C 9,9 C 0,2 km/h
09.05.2017 11,6 C 69 % 1014,5 hPa 0,0 l/m 0,9 km/h N-NW 5,7 C 11,5 C 0,5 km/h
10.05.2017 15,3 C 59 % 1005,7 hPa 0,0 l/m 0,2 km/h O-SO 6,0 C 15,3 C 0,1 km/h
11.05.2017 16,0 C 70 % 998,6 hPa 0,0 l/m 1,3 km/h O-SO 10,3 C 15,9 C 0,7 km/h
12.05.2017 17,0 C 69 % 1002,0 hPa 0,0 l/m 2,6 km/h S 10,8 C 16,6 C 1,5 km/h
13.05.2017 17,2 C 69 % 1010,4 hPa 0,0 l/m 3,9 km/h S-SO 10,8 C 16,7 C 2,2 km/h
14.05.2017 17,2 C 72 % 1019,8 hPa 4,1 l/m 0,8 km/h W-NW 11,6 C 17,1 C 0,5 km/h
15.05.2017 18,8 C 61 % 1026,1 hPa 1,6 l/m 0,5 km/h O-SO 10,2 C 18,8 C 0,3 km/h
16.05.2017 19,8 C 61 % 1024,7 hPa 0,0 l/m 1,6 km/h N-NO 11,0 C 19,7 C 0,9 km/h
17.05.2017 22,2 C 57 % 1016,8 hPa 0,0 l/m 0,3 km/h O-NO 12,1 C 22,2 C 0,2 km/h
18.05.2017 19,4 C 69 % 1010,4 hPa 0,0 l/m 0,9 km/h O-NO 13,4 C 19,3 C 0,5 km/h
19.05.2017 11,6 C 79 % 1012,0 hPa 45,6 l/m 3,4 km/h W 8,1 C 10,8 C 1,9 km/h
20.05.2017 12,1 C 69 % 1020,0 hPa 0,0 l/m 0,4 km/h O-SO 6,2 C 12,0 C 0,2 km/h
21.05.2017 16,3 C 62 % 1021,4 hPa 0,0 l/m 1,6 km/h SO 8,0 C 16,1 C 0,9 km/h
22.05.2017 19,1 C 61 % 1015,3 hPa 0,0 l/m 0,5 km/h O-NO 10,2 C 19,1 C 0,3 km/h
23.05.2017 21,1 C 62 % 1016,4 hPa 0,0 l/m 1,5 km/h SO 12,6 C 21,1 C 0,9 km/h
24.05.2017 20,2 C 59 % 1020,5 hPa 0,0 l/m 1,0 km/h N-NO 11,1 C 20,2 C 0,5 km/h
25.05.2017 20,2 C 61 % 1018,1 hPa 0,0 l/m 3,5 km/h N-NO 12,0 C 20,0 C 2,0 km/h
26.05.2017 21,9 C 55 % 1015,3 hPa 0,0 l/m 0,8 km/h W 11,2 C 21,9 C 0,4 km/h
27.05.2017 24,1 C 55 % 1015,4 hPa 0,0 l/m 0,5 km/h W 13,3 C 24,1 C 0,3 km/h
28.05.2017 26,4 C 57 % 1015,0 hPa 0,0 l/m 0,5 km/h O-NO 16,2 C 26,4 C 0,3 km/h
29.05.2017 26,9 C 56 % 1011,9 hPa 0,0 l/m 1,4 km/h O-SO 16,1 C 26,9 C 0,8 km/h
30.05.2017 22,7 C 68 % 1013,2 hPa 3,6 l/m 3,0 km/h O-SO 15,7 C 22,6 C 1,7 km/h
31.05.2017 22,4 C 64 % 1017,5 hPa 0,0 l/m 2,3 km/h SO 14,5 C 22,2 C 1,3 km/h
01.06.2017 21,6 C 72 % 1017,8 hPa 3,1 l/m 0,2 km/h O-SO 16,2 C 21,6 C 0,1 km/h
02.06.2017 21,7 C 68 % 1014,8 hPa 3,6 l/m 0,3 km/h SO 15,2 C 21,7 C 0,2 km/h
03.06.2017 20,8 C 72 % 1011,3 hPa 1,6 l/m 1,8 km/h W-NW 15,1 C 20,6 C 1,0 km/h
04.06.2017 18,8 C 63 % 1013,2 hPa 24,3 l/m 0,8 km/h W-NW 11,3 C 18,8 C 0,4 km/h
05.06.2017 17,5 C 67 % 1011,7 hPa 0,0 l/m 0,0 km/h O-SO 10,5 C 17,5 C 0,0 km/h
06.06.2017 14,0 C 75 % 1006,2 hPa 7,3 l/m 7,2 km/h O-SO 9,4 C 12,6 C 4,0 km/h
07.06.2017 13,9 C 70 % 1016,1 hPa 0,0 l/m 13,9 km/h W 8,1 C 11,0 C 7,7 km/h
08.06.2017 18,4 C 60 % 1016,1 hPa 0,0 l/m 0,4 km/h SO 9,2 C 18,3 C 0,2 km/h
09.06.2017 17,7 C 69 % 1012,7 hPa 3,1 l/m 3,4 km/h O 11,8 C 17,3 C 1,9 km/h
10.06.2017 20,7 C 63 % 1017,8 hPa 0,0 l/m 1,1 km/h W 12,7 C 20,6 C 0,6 km/h
11.06.2017 23,1 C 64 % 1014,9 hPa 0,0 l/m 0,1 km/h NO 15,0 C 23,1 C 0,1 km/h
12.06.2017 21,8 C 66 % 1014,6 hPa 0,0 l/m 0,9 km/h O-SO 14,6 C 21,8 C 0,5 km/h
13.06.2017 20,5 C 60 % 1015,3 hPa 0,0 l/m 1,6 km/h NO 11,4 C 20,5 C 0,9 km/h
14.06.2017 21,8 C 66 % 1013,6 hPa 0,0 l/m 0,1 km/h W 14,6 C 21,8 C 0,1 km/h
15.06.2017 23,9 C 66 % 1013,5 hPa 0,5 l/m 1,7 km/h N 16,3 C 23,9 C 0,9 km/h
16.06.2017 21,7 C 59 % 1018,7 hPa 0,0 l/m 2,5 km/h N-NO 12,4 C 21,6 C 1,4 km/h
17.06.2017 19,4 C 61 % 1022,8 hPa 0,0 l/m 3,5 km/h N-NO 11,1 C 19,2 C 1,9 km/h
18.06.2017 22,9 C 55 % 1019,3 hPa 0,0 l/m 2,9 km/h N-NO 12,4 C 22,8 C 1,6 km/h
19.06.2017 24,6 C 57 % 1016,4 hPa 0,0 l/m 0,0 km/h N-NO 14,4 C 24,6 C 0,0 km/h
20.06.2017 26,8 C 60 % 1013,7 hPa 0,0 l/m 4,0 km/h O-SO 17,3 C 26,8 C 2,2 km/h
21.06.2017 27,0 C 60 % 1012,8 hPa 0,0 l/m 2,0 km/h N-NO 17,5 C 27,0 C 1,1 km/h
22.06.2017 28,8 C 54 % 1012,3 hPa 0,0 l/m 4,3 km/h W-SW 17,2 C 28,8 C 2,4 km/h
23.06.2017 27,3 C 57 % 1014,1 hPa 0,0 l/m 4,0 km/h N-NO 17,4 C 27,3 C 2,2 km/h
24.06.2017 24,0 C 62 % 1015,2 hPa 0,0 l/m 3,2 km/h N-NO 15,6 C 23,9 C 1,8 km/h
25.06.2017 22,2 C 61 % 1013,4 hPa 0,0 l/m 7,9 km/h W 13,7 C 21,5 C 4,4 km/h
26.06.2017 25,2 C 55 % 1010,1 hPa 0,0 l/m 1,3 km/h N 14,5 C 25,2 C 0,7 km/h
27.06.2017 23,5 C 67 % 1005,0 hPa 2,1 l/m 0,4 km/h SO 16,6 C 23,5 C 0,2 km/h
28.06.2017 20,9 C 69 % 998,5 hPa 3,6 l/m 4,1 km/h S-SW 14,6 C 20,5 C 2,3 km/h
29.06.2017 18,1 C 72 % 999,4 hPa 3,6 l/m 8,7 km/h S 12,7 C 16,6 C 4,8 km/h
30.06.2017 19,5 C 59 % 1005,6 hPa 0,0 l/m 9,7 km/h S 10,7 C 18,2 C 5,4 km/h
02.07.2017 16,6 C 79 % 993,3 hPa 4,6 l/m 1,0 km/h N-NO 13,0 C 16,6 C 0,5 km/h
03.07.2017 20,6 C 65 % 1011,6 hPa 1,0 l/m 1,8 km/h N-NO 13,3 C 20,6 C 1,0 km/h
04.07.2017 23,4 C 59 % 1017,9 hPa 0,0 l/m 0,3 km/h N-NO 13,9 C 23,4 C 0,2 km/h
05.07.2017 25,2 C 57 % 1015,0 hPa 0,0 l/m 1,0 km/h SO 15,0 C 25,2 C 0,6 km/h
06.07.2017 27,4 C 50 % 1014,5 hPa 0,0 l/m 1,6 km/h W-SW 14,1 C 27,4 C 0,9 km/h
07.07.2017 25,4 C 59 % 1014,5 hPa 0,0 l/m 2,8 km/h SW 16,3 C 25,4 C 1,5 km/h
08.07.2017 27,9 C 59 % 1013,7 hPa 0,0 l/m 1,4 km/h O-SO 18,2 C 27,9 C 0,8 km/h
09.07.2017 22,8 C 74 % 1011,1 hPa 6,7 l/m 0,6 km/h N-NO 17,6 C 22,7 C 0,3 km/h
10.07.2017 20,5 C 75 % 1008,8 hPa 14,5 l/m 4,9 km/h W-SW 15,9 C 19,8 C 2,7 km/h
11.07.2017 20,6 C 71 % 1012,3 hPa 3,1 l/m 6,3 km/h SW 14,9 C 19,7 C 3,5 km/h
12.07.2017 20,2 C 74 % 1012,4 hPa 1,0 l/m 8,3 km/h N-NO 15,3 C 19,1 C 4,6 km/h
13.07.2017 20,6 C 65 % 1017,2 hPa 0,0 l/m 1,0 km/h N 13,1 C 20,5 C 0,6 km/h
14.07.2017 19,8 C 67 % 1015,1 hPa 1,0 l/m 1,8 km/h N-NO 12,9 C 19,7 C 1,0 km/h
15.07.2017 18,9 C 59 % 1019,9 hPa 0,0 l/m 0,8 km/h N 10,2 C 18,8 C 0,5 km/h
16.07.2017 20,8 C 57 % 1021,1 hPa 0,0 l/m 0,0 km/h N 11,2 C 20,8 C 0,0 km/h
17.07.2017 24,5 C 58 % 1017,6 hPa 0,0 l/m 1,6 km/h N 14,6 C 24,4 C 0,9 km/h
18.07.2017 25,7 C 60 % 1014,3 hPa 0,0 l/m 0,6 km/h N-NO 16,1 C 25,7 C 0,3 km/h
26.07.2017 16,0 C 69 % 1009,4 hPa 33,2 l/m 4,7 km/h W 10,3 C 14,9 C 2,6 km/h
27.07.2017 18,8 C 77 % 1009,2 hPa 4,7 l/m 5,2 km/h SO 14,5 C 18,1 C 2,9 km/h
28.07.2017 20,5 C 65 % 1012,5 hPa 1,0 l/m 4,0 km/h O-SO 13,5 C 20,2 C 2,2 km/h
29.07.2017 22,9 C 62 % 1013,2 hPa 0,0 l/m 0,2 km/h SO 14,5 C 22,9 C 0,1 km/h
30.07.2017 24,6 C 64 % 1010,2 hPa 1,6 l/m 2,6 km/h SO 16,7 C 24,5 C 1,5 km/h
31.07.2017 24,7 C 66 % 1011,6 hPa 0,0 l/m 0,1 km/h SO 17,3 C 24,7 C 0,1 km/h
01.08.2017 23,9 C 71 % 1012,6 hPa 6,2 l/m 0,0 km/h N-NO 18,2 C 23,9 C 0,0 km/h
02.08.2017 25,2 C 65 % 1015,7 hPa 4,1 l/m 0,8 km/h W 17,8 C 25,2 C 0,4 km/h
03.08.2017 25,6 C 72 % 1012,1 hPa 0,0 l/m 2,5 km/h O-SO 19,9 C 25,6 C 1,4 km/h
04.08.2017 22,8 C 68 % 1013,4 hPa 0,0 l/m 5,2 km/h NO 16,3 C 22,3 C 2,9 km/h
05.08.2017 21,8 C 69 % 1014,0 hPa 0,0 l/m 4,9 km/h N-NO 15,5 C 21,5 C 2,7 km/h
06.08.2017 21,3 C 59 % 1018,8 hPa 0,0 l/m 1,2 km/h N-NO 12,0 C 21,2 C 0,7 km/h
07.08.2017 21,4 C 60 % 1014,1 hPa 0,0 l/m 0,7 km/h N-NO 12,4 C 21,4 C 0,4 km/h
08.08.2017 18,8 C 75 % 1009,7 hPa 1,0 l/m 3,9 km/h W-SW 14,1 C 18,3 C 2,1 km/h
09.08.2017 19,1 C 68 % 1013,7 hPa 6,2 l/m 0,0 km/h SO 12,7 C 19,1 C 0,0 km/h
10.08.2017 13,8 C 76 % 1017,0 hPa 14,5 l/m 0,3 km/h O-NO 9,6 C 13,8 C 0,2 km/h
11.08.2017 13,3 C 79 % 1015,7 hPa 3,1 l/m 0,5 km/h O-SO 9,7 C 13,3 C 0,3 km/h
12.08.2017 16,9 C 71 % 1017,8 hPa 2,1 l/m 3,9 km/h NO 11,4 C 16,2 C 2,2 km/h
13.08.2017 21,0 C 68 % 1017,8 hPa 0,0 l/m 0,3 km/h O-SO 14,3 C 21,0 C 0,2 km/h
14.08.2017 22,6 C 66 % 1015,9 hPa 0,0 l/m 0,9 km/h N 15,1 C 22,6 C 0,5 km/h
15.08.2017 24,0 C 64 % 1015,3 hPa 0,0 l/m 1,6 km/h O-SO 16,2 C 23,9 C 0,9 km/h
16.08.2017 23,4 C 68 % 1017,7 hPa 0,5 l/m 0,1 km/h O-SO 16,8 C 23,4 C 0,0 km/h
17.08.2017 23,9 C 65 % 1015,9 hPa 0,0 l/m 4,5 km/h O-SO 16,3 C 23,7 C 2,5 km/h
18.08.2017 20,9 C 72 % 1013,4 hPa 18,6 l/m 1,5 km/h O-SO 15,3 C 20,8 C 0,8 km/h
19.08.2017 19,8 C 65 % 1017,3 hPa 0,0 l/m 1,1 km/h N-NO 12,5 C 19,7 C 0,6 km/h
20.08.2017 18,1 C 64 % 1021,2 hPa 0,0 l/m 0,0 km/h SO 10,5 C 18,1 C 0,0 km/h
21.08.2017 18,3 C 64 % 1020,7 hPa 0,0 l/m 1,5 km/h O-SO 10,4 C 18,2 C 0,8 km/h
22.08.2017 21,2 C 64 % 1016,8 hPa 0,0 l/m 0,6 km/h SO 13,4 C 21,2 C 0,4 km/h
23.08.2017 22,7 C 65 % 1013,3 hPa 0,0 l/m 0,1 km/h O-SO 14,7 C 22,7 C 0,0 km/h
24.08.2017 22,3 C 68 % 1014,8 hPa 0,0 l/m 1,2 km/h O-SO 15,6 C 22,2 C 0,7 km/h
25.08.2017 23,2 C 67 % 1014,5 hPa 0,0 l/m 0,1 km/h O-SO 16,1 C 23,2 C 0,0 km/h
26.08.2017 25,1 C 59 % 1013,4 hPa 0,0 l/m 3,2 km/h O-SO 15,3 C 25,0 C 1,8 km/h
27.08.2017 24,0 C 66 % 1014,1 hPa 0,0 l/m 0,8 km/h O-SO 16,6 C 24,0 C 0,4 km/h
28.08.2017 23,9 C 67 % 1014,6 hPa 0,0 l/m 0,9 km/h NO 16,7 C 23,9 C 0,5 km/h
29.08.2017 24,6 C 65 % 1012,0 hPa 0,0 l/m 0,1 km/h N 16,8 C 24,6 C 0,0 km/h
30.08.2017 24,5 C 65 % 1009,1 hPa 1,0 l/m 2,4 km/h O-SO 16,7 C 24,5 C 1,4 km/h
31.08.2017 16,9 C 80 % 1014,4 hPa 4,1 l/m 2,1 km/h O-SO 13,4 C 16,5 C 1,2 km/h
01.09.2017 15,2 C 76 % 1016,4 hPa 0,5 l/m 0,3 km/h O-SO 11,0 C 15,2 C 0,2 km/h
02.09.2017 13,2 C 77 % 1016,0 hPa 15,0 l/m 0,4 km/h O-SO 9,3 C 13,2 C 0,2 km/h
03.09.2017 15,8 C 66 % 1014,6 hPa 0,0 l/m 0,0 km/h O-SO 9,0 C 15,8 C 0,0 km/h
04.09.2017 16,7 C 68 % 1014,3 hPa 0,0 l/m 0,4 km/h O-SO 10,2 C 16,7 C 0,2 km/h
05.09.2017 21,0 C 70 % 1016,7 hPa 0,0 l/m 0,5 km/h O-SO 14,8 C 21,0 C 0,3 km/h
06.09.2017 18,8 C 74 % 1016,8 hPa 0,0 l/m 1,4 km/h W 13,9 C 18,6 C 0,8 km/h
07.09.2017 16,7 C 72 % 1015,8 hPa 0,5 l/m 0,0 km/h O-SO 11,2 C 16,7 C 0,0 km/h
08.09.2017 14,1 C 71 % 1009,4 hPa 0,0 l/m 5,8 km/h O-SO 8,8 C 13,0 C 3,2 km/h
09.09.2017 14,8 C 75 % 1000,6 hPa 1,6 l/m 5,0 km/h S 10,3 C 14,0 C 2,8 km/h
10.09.2017 15,9 C 67 % 1004,2 hPa 0,0 l/m 1,3 km/h O 9,0 C 15,8 C 0,7 km/h
11.09.2017 14,7 C 68 % 1002,8 hPa 0,0 l/m 7,7 km/h W-SW 8,8 C 13,3 C 4,3 km/h
12.09.2017 14,1 C 74 % 1009,2 hPa 5,2 l/m 4,7 km/h W-SW 9,4 C 13,1 C 2,6 km/h
13.09.2017 16,9 C 68 % 1009,5 hPa 0,0 l/m 12,5 km/h W 10,8 C 14,5 C 6,9 km/h
14.09.2017 14,9 C 72 % 1009,3 hPa 11,9 l/m 12,6 km/h W-SW 9,8 C 12,6 C 7,0 km/h
15.09.2017 14,5 C 66 % 1011,9 hPa 0,0 l/m 1,0 km/h W 7,5 C 14,5 C 0,5 km/h
16.09.2017 10,8 C 76 % 1010,2 hPa 1,6 l/m 0,6 km/h O-SO 6,5 C 10,7 C 0,3 km/h
17.09.2017 11,4 C 74 % 1011,6 hPa 3,6 l/m 0,0 km/h NO 6,8 C 11,4 C 0,0 km/h
18.09.2017 11,8 C 76 % 1014,6 hPa 0,5 l/m 0,1 km/h O-SO 7,5 C 11,8 C 0,1 km/h
19.09.2017 12,0 C 78 % 1016,5 hPa 4,7 l/m 0,2 km/h O-SO 8,3 C 12,0 C 0,1 km/h
20.09.2017 13,0 C 71 % 1019,8 hPa 1,0 l/m 1,4 km/h SO 7,5 C 12,8 C 0,7 km/h
21.09.2017 13,0 C 71 % 1018,1 hPa 0,0 l/m 0,2 km/h W 7,5 C 13,0 C 0,1 km/h
22.09.2017 15,2 C 67 % 1018,2 hPa 0,0 l/m 0,0 km/h SO 8,4 C 15,2 C 0,0 km/h
23.09.2017 16,4 C 70 % 1019,0 hPa 0,0 l/m 0,1 km/h O-SO 10,2 C 16,4 C 0,1 km/h
24.09.2017 15,8 C 69 % 1018,0 hPa 0,0 l/m 0,6 km/h N-NO 9,6 C 15,8 C 0,3 km/h
25.09.2017 13,8 C 73 % 1016,7 hPa 0,0 l/m 0,0 km/h W 8,8 C 13,8 C 0,0 km/h
26.09.2017 15,5 C 70 % 1018,3 hPa 0,0 l/m 0,0 km/h W 9,6 C 15,5 C 0,0 km/h
27.09.2017 16,9 C 72 % 1019,9 hPa 0,0 l/m 0,8 km/h O-SO 11,3 C 16,8 C 0,4 km/h
28.09.2017 17,0 C 70 % 1021,3 hPa 0,0 l/m 1,3 km/h O-SO 10,9 C 16,9 C 0,7 km/h
29.09.2017 19,2 C 72 % 1019,4 hPa 0,0 l/m 0,0 km/h SO 13,4 C 19,2 C 0,0 km/h
30.09.2017 15,5 C 75 % 1015,6 hPa 4,1 l/m 2,7 km/h O-SO 11,0 C 15,1 C 1,5 km/h
01.10.2017 14,3 C 73 % 1018,8 hPa 0,0 l/m 0,1 km/h W 9,3 C 14,3 C 0,1 km/h
02.10.2017 14,7 C 80 % 1016,8 hPa 0,0 l/m 6,2 km/h O-SO 11,2 C 13,5 C 3,5 km/h
03.10.2017 15,7 C 71 % 1018,1 hPa 19,7 l/m 3,3 km/h O-SO 10,1 C 15,2 C 1,8 km/h
04.10.2017 10,4 C 75 % 1022,7 hPa 0,0 l/m 0,4 km/h O-SO 5,9 C 10,3 C 0,2 km/h
05.10.2017 13,2 C 68 % 1015,8 hPa 5,2 l/m 8,1 km/h SW 6,7 C 12,0 C 4,5 km/h
06.10.2017 9,9 C 76 % 1019,1 hPa 0,5 l/m 1,0 km/h O-SO 5,9 C 9,8 C 0,6 km/h
07.10.2017 12,1 C 70 % 1020,7 hPa 0,0 l/m 4,1 km/h O-NO 6,4 C 11,4 C 2,3 km/h
08.10.2017 11,1 C 82 % 1017,0 hPa 5,7 l/m 4,3 km/h S 8,1 C 10,2 C 2,4 km/h
09.10.2017 11,8 C 78 % 1018,3 hPa 0,0 l/m 0,0 km/h O-SO 8,0 C 11,8 C 0,0 km/h
10.10.2017 11,2 C 76 % 1018,1 hPa 0,0 l/m 0,3 km/h O-SO 7,1 C 11,2 C 0,2 km/h
11.10.2017 15,0 C 70 % 1017,8 hPa 0,0 l/m 1,3 km/h O-SO 9,1 C 14,8 C 0,7 km/h
12.10.2017 14,4 C 75 % 1021,6 hPa 0,0 l/m 2,0 km/h W-SW 9,9 C 14,1 C 1,1 km/h
13.10.2017 15,3 C 69 % 1024,6 hPa 0,0 l/m 0,2 km/h O-SO 9,2 C 15,3 C 0,1 km/h
14.10.2017 15,1 C 71 % 1024,7 hPa 0,0 l/m 0,0 km/h O-SO 9,5 C 15,1 C 0,0 km/h
15.10.2017 16,2 C 67 % 1023,2 hPa 0,0 l/m 0,4 km/h O-SO 9,4 C 16,2 C 0,2 km/h
16.10.2017 16,9 C 68 % 1022,3 hPa 0,0 l/m 0,0 km/h O-NO 9,9 C 16,9 C 0,0 km/h
17.10.2017 15,7 C 64 % 1019,2 hPa 0,0 l/m 0,0 km/h O-NO 7,5 C 15,7 C 0,0 km/h
18.10.2017 15,0 C 64 % 1013,2 hPa 0,0 l/m 2,0 km/h O-SO 7,0 C 14,7 C 1,1 km/h
19.10.2017 14,3 C 70 % 1011,0 hPa 0,0 l/m 0,1 km/h O-SO 8,3 C 14,3 C 0,0 km/h
20.10.2017 14,8 C 73 % 1012,7 hPa 0,0 l/m 2,6 km/h O-SO 10,0 C 14,5 C 1,5 km/h
21.10.2017 16,1 C 74 % 1014,4 hPa 4,1 l/m 1,6 km/h S-SW 11,3 C 16,0 C 0,9 km/h
22.10.2017 11,0 C 75 % 1016,5 hPa 1,0 l/m 9,6 km/h SW 6,6 C 8,4 C 5,3 km/h
23.10.2017 9,5 C 80 % 1020,3 hPa 4,1 l/m 0,4 km/h S-SO 6,3 C 9,5 C 0,2 km/h
24.10.2017 13,4 C 74 % 1023,1 hPa 0,0 l/m 0,6 km/h O-SO 8,6 C 13,3 C 0,3 km/h
25.10.2017 13,8 C 75 % 1022,0 hPa 0,0 l/m 0,0 km/h O 9,3 C 13,8 C 0,0 km/h
26.10.2017 14,0 C 73 % 1022,5 hPa 0,0 l/m 0,0 km/h O 8,9 C 14,0 C 0,0 km/h
27.10.2017 11,6 C 74 % 1023,7 hPa 1,6 l/m 0,6 km/h O-SO 7,0 C 11,5 C 0,4 km/h
28.10.2017 7,7 C 75 % 1024,0 hPa 0,0 l/m 2,2 km/h O-SO 3,4 C 7,2 C 1,2 km/h
29.10.2017 8,5 C 79 % 1015,4 hPa 6,7 l/m 10,7 km/h S-SO 5,0 C 5,2 C 6,0 km/h
30.10.2017 6,0 C 72 % 1022,8 hPa 0,0 l/m 1,4 km/h N 1,1 C 5,6 C 0,8 km/h
31.10.2017 5,4 C 74 % 1024,2 hPa 0,5 l/m 0,0 km/h O 0,9 C 5,4 C 0,0 km/h
01.11.2017 8,7 C 71 % 1020,4 hPa 0,0 l/m 0,0 km/h N 3,1 C 8,7 C 0,0 km/h
02.11.2017 11,9 C 71 % 1014,9 hPa 0,0 l/m 3,9 km/h W 6,6 C 11,0 C 2,2 km/h
03.11.2017 12,2 C 74 % 1013,0 hPa 0,0 l/m 0,0 km/h W 7,4 C 12,2 C 0,0 km/h
04.11.2017 12,5 C 74 % 1008,9 hPa 0,0 l/m 1,5 km/h O-SO 7,6 C 12,2 C 0,9 km/h
05.11.2017 8,9 C 81 % 1009,2 hPa 15,0 l/m 1,4 km/h S 5,8 C 8,5 C 0,8 km/h
06.11.2017 5,4 C 83 % 1018,0 hPa 1,0 l/m 0,9 km/h N 2,8 C 5,2 C 0,5 km/h
07.11.2017 4,8 C 81 % 1015,2 hPa 0,0 l/m 0,0 km/h S-SW 1,9 C 4,8 C 0,0 km/h
08.11.2017 6,0 C 76 % 1015,2 hPa 2,6 l/m 0,1 km/h SW 2,1 C 6,0 C 0,0 km/h
09.11.2017 6,4 C 82 % 1020,9 hPa 0,0 l/m 0,0 km/h W-SW 3,6 C 6,4 C 0,0 km/h
10.11.2017 6,4 C 82 % 1019,5 hPa 2,1 l/m 10,2 km/h S-SW 3,6 C 2,9 C 5,7 km/h
11.11.2017 8,0 C 83 % 1012,4 hPa 3,6 l/m 11,3 km/h S-SW 5,2 C 4,3 C 6,3 km/h
12.11.2017 7,3 C 76 % 1002,8 hPa 16,1 l/m 11,0 km/h S-SW 3,3 C 4,3 C 6,1 km/h
13.11.2017 4,7 C 79 % 1013,5 hPa 1,6 l/m 0,0 km/h N-NO 1,3 C 4,7 C 0,0 km/h
14.11.2017 3,7 C 77 % 1022,6 hPa 0,0 l/m 0,2 km/h O-SO 0,0 C 3,7 C 0,1 km/h
15.11.2017 -0,6 C 80 % 1023,1 hPa 0,0 l/m 0,0 km/h O-SO -3,6 C -0,6 C 0,0 km/h
16.11.2017 1,0 C 80 % 1022,2 hPa 0,0 l/m 0,0 km/h O-NO -2,0 C 1,0 C 0,0 km/h
17.11.2017 3,6 C 83 % 1023,1 hPa 0,5 l/m 0,0 km/h O-SO 1,0 C 3,6 C 0,0 km/h
18.11.2017 5,0 C 80 % 1020,9 hPa 0,0 l/m 5,6 km/h S-SW 1,9 C 2,9 C 3,1 km/h
19.11.2017 4,6 C 80 % 1018,6 hPa 4,7 l/m 4,3 km/h W-SW 1,4 C 3,1 C 2,4 km/h
20.11.2017 3,2 C 82 % 1020,1 hPa 1,0 l/m 5,4 km/h SO 0,4 C 1,1 C 3,0 km/h
21.11.2017 8,7 C 77 % 1015,7 hPa 4,1 l/m 4,4 km/h N-NO 4,7 C 7,5 C 2,4 km/h
22.11.2017 8,9 C 71 % 1010,4 hPa 0,0 l/m 2,0 km/h O-SO 3,3 C 8,6 C 1,1 km/h
23.11.2017 9,1 C 72 % 1009,8 hPa 0,0 l/m 0,7 km/h O-SO 4,1 C 9,0 C 0,4 km/h
24.11.2017 11,3 C 75 % 1011,7 hPa 4,7 l/m 1,4 km/h O-SO 6,9 C 11,0 C 0,8 km/h
25.11.2017 6,6 C 82 % 1011,5 hPa 34,2 l/m 3,5 km/h W 3,7 C 5,4 C 1,9 km/h
26.11.2017 2,9 C 83 % 1023,1 hPa 1,6 l/m 7,8 km/h S-SW 0,2 C -0,2 C 4,3 km/h
27.11.2017 4,9 C 79 % 1021,5 hPa 0,0 l/m 19,4 km/h SW 1,5 C -2,3 C 10,8 km/h
28.11.2017 4,6 C 79 % 1008,2 hPa 9,3 l/m 18,1 km/h W-SW 1,2 C -2,2 C 10,1 km/h
29.11.2017 2,2 C 83 % 1004,2 hPa 2,6 l/m 0,8 km/h N -0,4 C 1,9 C 0,5 km/h
30.11.2017 1,5 C 82 % 1004,7 hPa 2,6 l/m 3,9 km/h S -1,3 C 0,0 C 2,2 km/h
01.12.2017 1,5 C 79 % 1010,4 hPa 2,6 l/m 0,1 km/h S-SW -1,8 C 1,5 C 0,1 km/h
02.12.2017 -0,4 C 79 % 1019,5 hPa 0,0 l/m 1,3 km/h N-NO -3,7 C -0,6 C 0,7 km/h
03.12.2017 -0,3 C 80 % 1024,3 hPa 0,0 l/m 0,0 km/h O-SO -3,5 C -0,3 C 0,0 km/h
04.12.2017 0,6 C 84 % 1029,9 hPa 1,0 l/m 0,0 km/h NO -1,9 C 0,6 C 0,0 km/h
05.12.2017 2,9 C 81 % 1034,3 hPa 1,6 l/m 0,1 km/h O-SO -0,0 C 2,9 C 0,1 km/h
06.12.2017 3,3 C 81 % 1031,3 hPa 0,5 l/m 0,0 km/h SO 0,4 C 3,3 C 0,0 km/h
07.12.2017 5,7 C 70 % 1020,0 hPa 0,0 l/m 12,0 km/h S-SO 0,3 C 1,9 C 6,7 km/h
08.12.2017 4,5 C 82 % 1011,8 hPa 2,6 l/m 13,2 km/h SW 1,7 C -0,3 C 7,3 km/h
09.12.2017 0,6 C 81 % 1015,0 hPa 0,0 l/m 7,9 km/h W-SW -2,4 C -2,5 C 4,4 km/h
10.12.2017 3,8 C 76 % 993,8 hPa 4,1 l/m 15,0 km/h O-SO -0,0 C -1,5 C 8,3 km/h
11.12.2017 7,9 C 81 % 983,0 hPa 13,5 l/m 14,1 km/h O-SO 4,9 C 3,2 C 7,8 km/h
12.12.2017 4,3 C 75 % 1007,5 hPa 0,0 l/m 17,7 km/h W-SW 0,3 C -2,2 C 9,8 km/h
13.12.2017 4,4 C 74 % 1008,6 hPa 0,5 l/m 15,6 km/h W-SW 0,0 C -1,0 C 8,6 km/h
14.12.2017 6,4 C 80 % 998,1 hPa 3,1 l/m 24,0 km/h W-SW 3,1 C -2,0 C 13,4 km/h
15.12.2017 5,5 C 74 % 996,8 hPa 0,0 l/m 18,8 km/h W-SW 1,3 C -1,4 C 10,4 km/h
16.12.2017 2,3 C 83 % 1008,9 hPa 8,3 l/m 2,7 km/h S-SO -0,3 C 1,3 C 1,5 km/h
17.12.2017 2,0 C 82 % 1022,0 hPa 0,5 l/m 0,0 km/h W-SW -0,9 C 2,0 C 0,0 km/h
18.12.2017 1,4 C 83 % 1021,4 hPa 2,1 l/m 1,9 km/h S -1,1 C 0,6 C 1,1 km/h
19.12.2017 2,1 C 80 % 1030,5 hPa 0,0 l/m 0,0 km/h N -1,0 C 2,1 C 0,0 km/h
20.12.2017 2,9 C 79 % 1031,8 hPa 1,0 l/m 0,0 km/h N-NO -0,3 C 2,9 C 0,0 km/h
21.12.2017 4,6 C 81 % 1033,8 hPa 0,5 l/m 0,2 km/h O-SO 1,6 C 4,6 C 0,1 km/h
22.12.2017 6,1 C 70 % 1032,3 hPa 1,0 l/m 0,0 km/h O-SO 1,1 C 6,1 C 0,0 km/h
23.12.2017 6,9 C 77 % 1033,1 hPa 0,0 l/m 1,9 km/h O-SO 3,0 C 6,2 C 1,1 km/h
24.12.2017 5,7 C 85 % 1028,3 hPa 0,0 l/m 2,7 km/h W 3,4 C 5,0 C 1,5 km/h
25.12.2017 4,3 C 82 % 1017,9 hPa 0,0 l/m 0,3 km/h W 1,5 C 4,2 C 0,2 km/h
26.12.2017 5,4 C 75 % 1005,5 hPa 0,0 l/m 9,9 km/h O 1,2 C 2,4 C 5,5 km/h
27.12.2017 4,9 C 82 % 987,8 hPa 2,1 l/m 11,4 km/h SW 2,1 C 0,5 C 6,4 km/h
28.12.2017 1,2 C 84 % 999,9 hPa 3,6 l/m 4,2 km/h W -1,3 C -0,5 C 2,3 km/h
29.12.2017 2,7 C 77 % 1007,4 hPa 6,7 l/m 4,4 km/h S-SO -1,0 C 1,1 C 2,5 km/h
30.12.2017 9,3 C 82 % 1007,0 hPa 1,0 l/m 20,8 km/h SW 6,4 C 3,3 C 11,5 km/h
31.12.2017 11,9 C 72 % 1009,2 hPa 0,0 l/m 18,1 km/h W-SW 6,8 C 6,8 C 10,1 km/h
Min-Datum 07.01.17 06.07.17 11.12.17 151 Tage 01.01.17 - 07.01.17 24.01.17 01.01.17
Min-Zeit 05:10 16:55 09:53 - 00:10 - 05:10 02:10 00:10
Minimum -13,5 C 20 % 978,3 hPa - 0,0 km/h - -15,6 C -15,8 C 0,0 km/h
Max-Datum 06.07.17 01.01.17 06.01.17 19.05.17 23.02.17 - 01.08.17 06.07.17 23.02.17
Max-Zeit 16:55 07:10 10:10 14:56 17:01 - 14:55 16:55 17:01
Maximum 39,9 C 87 % 1036,1 hPa 45,6 l/m 58,3 km/h
W-SW
- 23,3 C 39,9 C 32,4 km/h
W-SW
Durchschnitt 11,9 C 72 % 1015,7 hPa #731,3 l/m 3,1 km/h O-SO 6,4 C 11,1 C 1,7 km/h

Durchschnitt Minimum Temp.5,8 C
Durchschnitt Maximum Temp.20,2 C
www.sexauwetter.de